Location: Bakov nad Jizerou
(50.4784°N, 14.9394°E)
Time: 22:53:32
(UTC+00:00)

Cosmos 1674 - Pass Details

Date: 16 June 2021
Orbit: 494 x 515 km, 82.5° (Epoch: 23 July)

Event Time Altitude Azimuth Distance (km) Brightness Sun altitude
Exits shadow 20:22:09 - 182° (S) 2,088 5.3 -8.2°
Reaches altitude 10° 20:23:06 10° 181° (S) 1,698 4.8 -8.3°
Maximum altitude 20:26:47 71° 98° (E) 532 2.6 -8.7°
Drops below altitude 10° 20:30:30 10° 14° (NNE) 1,706 6.0 -9.0°
Sets 20:32:38 0° 12° (NNE) 2,592 7.0 -9.2°
